Buckeye, AZ

10:04 AM MST on July 19, 2019 (GMT -0700)
Buckeye Municipal

Weather History for KBXK - May, 2019

Change the Weather History Date:

Wednesday, May 29, 2019

  Actual Average (KGYR) Record (KGYR)
Temperature  
Mean Temperature 73 °F -  
Max Temperature 89 °F 98 °F 116 °F (1997)
Min Temperature 57 °F 68 °F 57 °F (2006)
Cooling Degree Days 8    
Growing Degree Days 23 (Base 50)    
Moisture  
Dew Point 31 °F    
Average Humidity 21    
Maximum Humidity 31    
Minimum Humidity 13    
Precipitation  
Precipitation 0.00 in - - ()
Sea Level Pressure  
Sea Level Pressure 29.79 in    
Wind  
Wind Speed 4 mph (SE)    
Max Wind Speed 12 mph    
Max Gust Speed 16 mph    
Visibility 9 miles    
Events      
Averages and records for this station are not official NWS values.
T = Trace of Precipitation, MM = Missing Value Source: NWS Daily Summary

Daily Weather History Graph

Daily Weather History Graph

Search for Another Location

Airport or City:

Astronomy

May. 29, 2019 Rise Set
Actual Time 5:23 AM MST 7:33 PM MST
Civil Twilight 4:54 AM MST 8:01 PM MST
Nautical Twilight 4:20 AM MST 8:36 PM MST
Astronomical Twilight 3:43 AM MST 9:13 PM MST
Moon 2:44 AM MST (5/29) 3:02 PM MST (5/29)
Length of Visible Light 15h 07m
Length of Day
14h 10m
Waning Crescent, 22% of the Moon is Illuminated
May 29
Waning Crescent
Jun 3
New
Jun 9
First Quarter
Jun 17
Full
Jun 25
Last Quarter

Hourly Weather History & Observations

Time (MST) Temp. Dew Point Humidity Pressure Visibility Wind Dir Wind Speed Gust Speed Precip Events Conditions
12:15 AM 64.4 °F 24.8 °F 22% 29.79 in 10.0 mi NNE 4.6 mph - N/A   Clear
12:35 AM 62.6 °F 24.8 °F 24% 29.78 in 10.0 mi NNE 5.8 mph - N/A   Unknown
12:55 AM 62.6 °F 23.0 °F 22% 29.78 in 10.0 mi North 9.2 mph - N/A   Clear
1:15 AM 62.6 °F 23.0 °F 22% 29.77 in 10.0 mi North 6.9 mph - N/A   Clear
1:35 AM 64.4 °F 24.8 °F 22% 29.77 in 4.0 mi Calm Calm - N/A   Clear
1:55 AM 62.6 °F 23.0 °F 22% 29.76 in 10.0 mi NNE 3.5 mph - N/A   Clear
2:15 AM 62.6 °F 23.0 °F 22% 29.76 in 10.0 mi NNE 4.6 mph - N/A   Unknown
2:35 AM 59.0 °F 23.0 °F 25% 29.76 in 10.0 mi North 3.5 mph - N/A   Unknown
2:55 AM 59.0 °F 23.0 °F 25% 29.77 in 9.0 mi NNW 6.9 mph - N/A   Clear
3:15 AM 60.8 °F 23.0 °F 23% 29.77 in 9.0 mi Calm Calm - N/A   Clear
3:35 AM 57.2 °F 23.0 °F 27% 29.77 in 10.0 mi NNW 3.5 mph - N/A   Clear
3:55 AM 57.2 °F 23.0 °F 27% 29.78 in 7.0 mi NNW 4.6 mph - N/A   Unknown
4:15 AM 57.2 °F 23.0 °F 27% 29.78 in 5.0 mi North 8.1 mph - N/A   Clear
4:35 AM 59.0 °F 24.8 °F 27% 29.78 in 10.0 mi ENE 4.6 mph - N/A   Clear
4:55 AM 57.2 °F 26.6 °F 31% 29.78 in 10.0 mi ENE 4.6 mph - N/A   Clear
5:15 AM 57.2 °F 26.6 °F 31% 29.79 in 10.0 mi Calm Calm - N/A   Unknown
5:35 AM 57.2 °F 24.8 °F 29% 29.80 in 7.0 mi Calm Calm - N/A   Clear
5:55 AM 60.8 °F 24.8 °F 25% 29.80 in 8.0 mi Calm Calm - N/A   Clear
6:15 AM 62.6 °F 24.8 °F 24% 29.81 in 7.0 mi Calm Calm - N/A   Clear
6:35 AM 64.4 °F 28.4 °F 26% 29.82 in 9.0 mi Calm Calm - N/A   Clear
6:55 AM 66.2 °F 30.2 °F 26% 29.82 in 10.0 mi Calm Calm - N/A   Clear
7:15 AM 68.0 °F 30.2 °F 24% 29.83 in 9.0 mi Calm Calm - N/A   Clear
7:35 AM 69.8 °F 30.2 °F 23% 29.83 in 9.0 mi Calm Calm - N/A   Clear
7:55 AM 71.6 °F 30.2 °F 22% 29.84 in 9.0 mi Calm Calm - N/A   Clear
8:15 AM 73.4 °F 30.2 °F 20% 29.85 in 10.0 mi South 3.5 mph - N/A   Clear
8:35 AM 73.4 °F 32.0 °F 22% 29.85 in 9.0 mi South 4.6 mph - N/A   Clear
8:55 AM 73.4 °F 32.0 °F 22% 29.85 in 8.0 mi SSE 4.6 mph - N/A   Clear
9:15 AM 75.2 °F 32.0 °F 21% 29.85 in 9.0 mi SSE 3.5 mph - N/A   Clear
9:35 AM 75.2 °F 32.0 °F 21% 29.85 in 8.0 mi South 3.5 mph - N/A   Clear
9:55 AM 77.0 °F 35.6 °F 22% 29.85 in 8.0 mi SSW 4.6 mph - N/A   Clear
10:15 AM 78.8 °F 35.6 °F 21% 29.85 in 9.0 mi South 5.8 mph - N/A   Clear
10:35 AM 80.6 °F 32.0 °F 17% 29.85 in 9.0 mi SSE 5.8 mph - N/A   Clear
10:55 AM 80.6 °F 33.8 °F 18% 29.85 in 10.0 mi SSE 5.8 mph - N/A   Clear
11:15 AM 82.4 °F 35.6 °F 19% 29.85 in 10.0 mi SSE 4.6 mph - N/A   Clear
11:35 AM 84.2 °F 35.6 °F 18% 29.84 in 10.0 mi SW 4.6 mph - N/A   Clear
11:55 AM 84.2 °F 32.0 °F 15% 29.84 in 10.0 mi ESE 3.5 mph - N/A   Clear
1:55 PM 87.8 °F 32.0 °F 14% 29.80 in 10.0 mi South 4.6 mph - N/A   Clear
2:15 PM 87.8 °F 32.0 °F 14% 29.80 in 10.0 mi SE 11.5 mph - N/A   Clear
2:35 PM 87.8 °F 32.0 °F 14% 29.79 in 10.0 mi East 9.2 mph - N/A   Clear
2:55 PM 87.8 °F 33.8 °F 15% 29.79 in 10.0 mi East 10.4 mph 16.1 mph N/A   Clear
3:15 PM 89.6 °F 32.0 °F 13% 29.78 in 10.0 mi SSE 10.4 mph - N/A   Clear
3:35 PM 89.6 °F 32.0 °F 13% 29.77 in 10.0 mi SSE 4.6 mph - N/A   Clear
3:55 PM 89.6 °F 32.0 °F 13% 29.77 in 10.0 mi South 10.4 mph - N/A   Clear
4:15 PM 89.6 °F 32.0 °F 13% 29.76 in 10.0 mi SE 9.2 mph - N/A   Clear
4:35 PM 89.6 °F 32.0 °F 13% 29.76 in 10.0 mi SE 10.4 mph - N/A   Clear
4:55 PM 89.6 °F 32.0 °F 13% 29.76 in 10.0 mi SE 10.4 mph - N/A   Clear
5:15 PM 89.6 °F 33.8 °F 14% 29.75 in 10.0 mi South 11.5 mph - N/A   Clear
5:35 PM 89.6 °F 32.0 °F 13% 29.75 in 10.0 mi SSE 6.9 mph - N/A   Clear
5:55 PM 87.8 °F 37.4 °F 17% 29.75 in 10.0 mi South 6.9 mph - N/A   Clear
6:15 PM 86.0 °F 37.4 °F 18% 29.75 in 10.0 mi South 6.9 mph - N/A   Clear
6:35 PM 86.0 °F 37.4 °F 18% 29.75 in 9.0 mi South 6.9 mph - N/A   Clear
6:55 PM 86.0 °F 37.4 °F 18% 29.75 in 10.0 mi SE 5.8 mph - N/A   Clear
7:15 PM 84.2 °F 41.0 °F 22% 29.76 in 10.0 mi SE 4.6 mph - N/A   Clear
7:35 PM 80.6 °F 42.8 °F 26% 29.76 in 10.0 mi SSE 5.8 mph - N/A   Clear
7:55 PM 78.8 °F 42.8 °F 28% 29.76 in 2.5 mi SSE 5.8 mph - N/A   Clear
8:15 PM 77.0 °F 41.0 °F 28% 29.77 in 9.0 mi South 5.8 mph - N/A   Unknown
8:35 PM 77.0 °F 41.0 °F 28% 29.77 in 7.0 mi South 4.6 mph - N/A   Clear
8:55 PM 77.0 °F 37.4 °F 24% 29.78 in 10.0 mi Calm Calm - N/A   Clear
9:15 PM 77.0 °F 37.4 °F 24% 29.79 in 10.0 mi Calm Calm - N/A   Clear
9:35 PM 75.2 °F 35.6 °F 24% 29.79 in 10.0 mi Calm Calm - N/A   Unknown
9:55 PM 75.2 °F 33.8 °F 22% 29.80 in 10.0 mi Calm Calm - N/A   Clear
10:15 PM 73.4 °F 32.0 °F 22% 29.80 in 10.0 mi Calm Calm - N/A   Unknown
10:35 PM 73.4 °F 32.0 °F 22% 29.81 in 10.0 mi Calm Calm - N/A   Unknown
10:55 PM 71.6 °F 28.4 °F 20% 29.80 in 10.0 mi Calm Calm - N/A   Clear
11:15 PM 71.6 °F 28.4 °F 20% 29.80 in 10.0 mi NNE 3.5 mph - N/A   Clear
11:35 PM 69.8 °F 28.4 °F 21% 29.81 in 10.0 mi North 4.6 mph - N/A   Clear
11:55 PM 69.8 °F 28.4 °F 21% 29.81 in 10.0 mi North 3.5 mph - N/A   Clear